Weather History for KJXN - March, 2013

Change the Weather History Date:

Saturday, March 23, 2013

  Actual Average Record
Temperature  
Mean Temperature 28 °F 38 °F  
Max Temperature 37 °F 49 °F 71 °F (1988)
Min Temperature 19 °F 28 °F 2 °F (1965)
Degree Days  
Heating Degree Days 37 27  
Month to date heating degree days 786 712  
Since 1 July heating degree days 5484 5626  
Cooling Degree Days 0 0  
Month to date cooling degree days 0 0  
Year to date cooling degree days 0 0  
Moisture  
Dew Point 19 °F    
Average Humidity 74    
Maximum Humidity 91    
Minimum Humidity 56    
Precipitation  
Precipitation 0.00 in 0.07 in 0.71 in (1956)
Month to date precipitation 0.61 1.34  
Year to date precipitation 4.96 4.12  
Sea Level Pressure  
Sea Level Pressure 30.08 in    
Wind  
Wind Speed 3 mph (NNW)    
Max Wind Speed 12 mph    
Max Gust Speed 15 mph    
Visibility 10 miles    
Events      
T = Trace of Precipitation, MM = Missing Value Source: NWS Daily Summary

Daily Weather History Graph

Daily Weather History Graph

Search for Another Location

Airport or City:

Trip Planner

Search our weather history database for the weather conditions in past years. The results will help you decide how hot, cold, wet, or windy it might be!

Date:

Astronomy

Mar. 23, 2013 Rise Set
Actual Time 7:35 AM EDT 7:53 PM EDT
Civil Twilight 7:07 AM EDT 8:21 PM EDT
Nautical Twilight 6:34 AM EDT 8:54 PM EDT
Astronomical Twilight 6:00 AM EDT 9:28 PM EDT
Moon 4:16 PM EDT (3/23) 5:15 AM EDT (3/23)
Length of Visible Light 13h 14m
Length of Day
12h 18m
Waxing Gibbous, 85% of the Moon is Illuminated
Mar 23
Waxing Gibbous
Mar 27
Full
Apr 3
Last Quarter
Apr 10
New
Apr 18
First Quarter

Hourly Weather History & Observations

Time (EDT) Temp. Windchill Dew Point Humidity Pressure Visibility Wind Dir Wind Speed Gust Speed Precip Events Conditions
12:56 AM 25.0 °F 19.3 °F 19.0 °F 78% 30.05 in 10.0 mi WNW 4.6 mph - N/A   Clear
1:56 AM 24.1 °F 18.2 °F 18.0 °F 77% 30.05 in 10.0 mi WSW 4.6 mph - N/A   Clear
2:56 AM 21.9 °F - 17.1 °F 82% 30.05 in 10.0 mi Calm Calm - N/A   Clear
3:56 AM 21.9 °F - 18.0 °F 85% 30.04 in 10.0 mi Calm Calm - N/A   Clear
4:56 AM 21.0 °F 16.2 °F 16.0 °F 81% 30.04 in 10.0 mi NW 3.5 mph - N/A   Clear
5:56 AM 21.0 °F 16.2 °F 17.1 °F 85% 30.05 in 10.0 mi West 3.5 mph - N/A   Clear
6:56 AM 21.0 °F - 17.1 °F 85% 30.06 in 10.0 mi Calm Calm - N/A   Clear
7:56 AM 19.9 °F - 17.1 °F 89% 30.07 in 8.0 mi Calm Calm - N/A   Scattered Clouds
8:04 AM 21.2 °F - 17.6 °F 86% 30.03 in 9.0 mi Calm Calm - N/A   Mostly Cloudy
8:56 AM 25.0 °F - 21.9 °F 88% 30.09 in 10.0 mi Calm Calm - N/A   Overcast
9:56 AM 28.0 °F 24.2 °F 23.0 °F 81% 30.11 in 10.0 mi NNW 3.5 mph - N/A   Overcast
10:56 AM 28.9 °F 25.2 °F 19.9 °F 69% 30.11 in 10.0 mi North 3.5 mph - N/A   Overcast
11:56 AM 30.9 °F - 19.9 °F 64% 30.12 in 10.0 mi Calm Calm - N/A   Overcast
12:56 PM 33.1 °F 28.7 °F 19.9 °F 59% 30.13 in 10.0 mi Variable 4.6 mph - N/A   Mostly Cloudy
1:56 PM 34.0 °F 28.8 °F 19.9 °F 56% 30.12 in 10.0 mi North 5.8 mph - N/A   Overcast
2:56 PM 34.0 °F 28.8 °F 19.9 °F 56% 30.11 in 10.0 mi NW 5.8 mph - N/A   Mostly Cloudy
3:56 PM 34.0 °F 31.0 °F 21.0 °F 59% 30.10 in 10.0 mi Variable 3.5 mph - N/A   Overcast
4:56 PM 33.1 °F - 19.9 °F 59% 30.10 in 10.0 mi Calm Calm - N/A   Mostly Cloudy
5:56 PM 33.1 °F 26.9 °F 21.0 °F 61% 30.10 in 10.0 mi NNE 6.9 mph - N/A   Overcast
6:56 PM 32.0 °F 24.8 °F 21.0 °F 64% 30.09 in 10.0 mi NNE 8.1 mph - N/A   Mostly Cloudy
7:56 PM 30.0 °F 22.4 °F 21.0 °F 69% 30.09 in 10.0 mi NNE 8.1 mph - N/A   Mostly Cloudy
8:21 PM 28.4 °F 22.2 °F 19.4 °F 69% 30.06 in 10.0 mi North 5.8 mph - N/A   Partly Cloudy
8:56 PM 28.0 °F 22.8 °F 19.9 °F 72% 30.09 in 10.0 mi NNE 4.6 mph - N/A   Clear
9:56 PM 27.0 °F - 19.9 °F 75% 30.09 in 10.0 mi Calm Calm - N/A   Clear
10:56 PM 26.1 °F - 19.0 °F 75% 30.09 in 10.0 mi Calm Calm - N/A   Clear
11:56 PM 26.1 °F 20.5 °F 19.9 °F 78% 30.05 in 10.0 mi ENE 4.6 mph - N/A   Clear